User: anonymous   Login
Location: Unspecified
(0.0000°N, 0.0000°E)
Time: 02:06:20
(UTC+00:00)
Language:

PACE - Orbit

View from above orbital plane
View from above orbital plane
View from above satellite
View from above satellite

Ground track
Ground track

The orbit data is extracted from the following two-line orbital elements,

1 40022U 14033N   18055.27955983 +.00000198 +00000-0 +27369-4 0  9995
2 40022 097.9101 330.8671 0012962 193.1676 166.9204 14.88394454199971
Epoch (UTC): 24 February 2018 06:42:33
Eccentricity: 0.0012962
inclination: 97.9101°
perigee height: 594 km
apogee height: 612 km
right ascension of ascending node: 330.8671°
argument of perigee: 193.1676°
revolutions per day: 14.88394454
mean anomaly at epoch: 166.9204°
orbit number at epoch: 19997

The dashed part of the orbit path shows where the satellite is in the earth's shadow,  

DLR